Location: Wien
(48.2082°N, 16.3738°E)
Time: 21:00:16
(UTC+02:00)

CUTE 1.7 + AOD 2 - Pass Details

Date: 30 April 2024
Orbit: 569 x 586 km, 97.8° (Epoch: 25 May)

Event Time Altitude Azimuth Distance (km) Brightness Sun altitude
Rises 04:16:26 0° 17° (NNE) 2,786 ? -12.2°
Reaches altitude 10° 04:18:38 10° 22° (NNE) 1,882 ? -12.0°
Maximum altitude 04:22:38 55° 100° (E) 692 ? -11.4°
Drops below altitude 10° 04:26:36 10° 179° (S) 1,866 ? -10.9°
Enters shadow 04:28:01 - 182° (S) 2,442 ? -10.7°
